DW5656 Weather Reports


Display with metric or nautical units.
time (UTC)temp
F
wind
direction
speed
MPH
gust
MPH
rain 1hr
in
rain 24hr
in
rain mn
in
humidity
%
barometer
mb
20170623064047 70 80 3.0 8.0 0.00 0.00 0.00 87 1020.2
20170623063147 70 80 3.0 7.0 0.00 0.00 0.00 87 1020.1
20170623062247 70 70 3.0 7.0 0.00 0.00 0.00 87 1020.1
20170623061347 70 80 3.0 7.0 0.00 0.00 0.00 87 1020.0
20170623060447 70 82 4.0 6.0 0.00 0.00 0.00 87 1019.9
20170623055547 70 84 4.0 7.0 0.00 0.00 0.00 88 1019.7
20170623054647 70 85 3.0 7.0 0.00 0.00 0.00 87 1019.6
20170623053747 71 77 2.0 6.0 0.00 0.00 0.00 86 1019.4
20170623052847 71 30 2.0 3.0 0.00 0.00 0.00 86 1019.4
20170623051947 71 329 2.0 4.0 0.00 0.00 0.00 86 1019.4
20170623051047 71 8 1.0 4.0 0.00 0.00 0.00 86 1019.4
20170623050147 71 37 2.0 3.0 0.00 0.00 0.00 86 1019.4
20170623045247 71 74 2.0 5.0 0.00 0.00 0.00 86 1019.5
20170623044347 71 44 1.0 4.0 0.00 0.00 0.00 86 1019.4
20170623043447 71 27 2.0 4.0 0.00 0.00 0.00 86 1019.4
20170623042547 71 357 2.0 3.0 0.00 0.00 0.00 85 1019.3
20170623041647 71 317 2.0 4.0 0.00 0.00 0.00 87 1019.3
20170623040747 71 329 2.0 5.0 0.00 0.00 0.00 87 1019.3
20170623035847 71 308 2.0 6.0 0.00 0.00 0.00 87 1019.3
20170623034947 71 271 2.0 5.0 0.00 0.00 0.00 87 1019.4
20170622232847 74 210 2.0 7.0 0.00 0.00 0.00 74 1019.1
20170622231947 74 206 3.0 7.0 0.00 0.00 0.00 74 1019.1
20170622231047 74 210 3.0 6.0 0.00 0.00 0.00 73 1018.9
20170622230147 74 204 4.0 7.0 0.00 0.00 0.00 72 1018.9
20170622225247 75 209 4.0 7.0 0.00 0.00 0.00 72 1018.9
20170622224347 75 207 4.0 8.0 0.00 0.00 0.00 70 1018.8
20170622223447 76 211 3.0 5.0 0.00 0.00 0.00 68 1018.7
20170622222547 76 207 3.0 6.0 0.00 0.00 0.00 67 1018.7
20170622221647 77 207 3.0 6.0 0.00 0.00 0.00 66 1018.5
20170622220747 77 215 3.0 6.0 0.00 0.00 0.00 65 1018.4
20170622215847 78 209 3.0 8.0 0.00 0.00 0.00 64 1018.2
20170622214947 78 217 3.0 7.0 0.00 0.00 0.00 63 1018.2
20170622214047 78 218 4.0 9.0 0.00 0.00 0.00 62 1018.2
20170622213147 79 214 3.0 6.0 0.00 0.00 0.00 61 1018.0
20170622212247 79 212 3.0 8.0 0.00 0.00 0.00 60 1017.8
20170622211347 80 212 3.0 8.0 0.00 0.00 0.00 59 1017.6
20170622210447 80 220 4.0 9.0 0.00 0.00 0.00 58 1017.3
20170622205547 81 212 4.0 10.0 0.00 0.00 0.00 58 1017.3
20170622204647 82 207 4.0 10.0 0.00 0.00 0.00 55 1017.1
20170622203747 83 211 3.0 7.0 0.00 0.00 0.00 50 1017.0
20170622202847 84 216 3.0 7.0 0.00 0.00 0.00 47 1016.8
20170622201947 84 240 3.0 8.0 0.00 0.00 0.00 46 1016.5
20170622201047 84 233 4.0 7.0 0.00 0.00 0.00 45 1016.4
20170622200147 85 218 4.0 7.0 0.00 0.00 0.00 45 1016.3
20170622195247 85 238 4.0 7.0 0.00 0.00 0.00 45 1016.3
20170622194347 86 233 6.0 9.0 0.00 0.00 0.00 43 1016.2
20170622193447 86 237 5.0 14.0 0.00 0.00 0.00 42 1016.2
20170622192547 87 237 6.0 9.0 0.00 0.00 0.00 42 1016.1
20170622191647 88 226 6.0 11.0 0.00 0.00 0.00 41 1016.1
20170622190747 88 228 6.0 11.0 0.00 0.00 0.00 40 1016.0
20170622185847 89 225 5.0 12.0 0.00 0.00 0.00 39 1015.9
20170622184947 90 239 5.0 11.0 0.00 0.00 0.00 38 1015.8
20170622184047 90 237 5.0 11.0 0.00 0.00 0.00 37 1015.8
20170622183147 90 223 5.0 12.0 0.00 0.00 0.00 38 1015.7
20170622182247 91 212 5.0 12.0 0.00 0.00 0.00 38 1015.6
20170622181347 91 230 5.0 13.0 0.00 0.00 0.00 37 1015.6
20170622180447 92 218 5.0 11.0 0.00 0.00 0.00 35 1015.6
20170622175547 92 234 5.0 11.0 0.00 0.00 0.00 34 1015.6
20170622174647 92 232 5.0 11.0 0.00 0.00 0.00 35 1015.6
20170622173747 92 224 5.0 9.0 0.00 0.00 0.00 35 1015.6
20170622172847 92 235 6.0 13.0 0.00 0.00 0.00 34 1015.7
20170622171947 92 239 6.0 14.0 0.00 0.00 0.00 31 1015.7
20170622171047 92 232 7.0 15.0 0.00 0.00 0.00 33 1015.7
20170622170147 92 229 7.0 15.0 0.00 0.00 0.00 33 1015.7
20170622165247 93 223 6.0 15.0 0.00 0.00 0.00 32 1015.7
20170622164347 92 223 7.0 13.0 0.00 0.00 0.00 34 1015.7
20170622163447 92 231 6.0 15.0 0.00 0.00 0.00 35 1015.7
20170622162547 93 223 6.0 12.0 0.00 0.00 0.00 33 1015.8
20170622161647 93 230 7.0 14.0 0.00 0.00 0.00 30 1015.8
20170622160747 93 232 8.0 15.0 0.00 0.00 0.00 29 1015.8
20170622155847 93 236 8.0 16.0 0.00 0.00 0.00 31 1015.8
20170622154947 93 236 7.0 17.0 0.00 0.00 0.00 33 1015.8
20170622154047 93 234 7.0 15.0 0.00 0.00 0.00 34 1015.7
20170622153147 94 231 6.0 14.0 0.00 0.00 0.00 34 1015.8
20170622152247 94 245 5.0 11.0 0.00 0.00 0.00 36 1015.7
20170622151347 93 199 6.0 14.0 0.00 0.00 0.00 35 1015.8
20170622150447 93 200 6.0 13.0 0.00 0.00 0.00 42 1015.8
20170622145547 92 219 6.0 14.0 0.00 0.00 0.00 42 1015.9
20170622144647 93 198 4.0 12.0 0.00 0.00 0.00 44 1015.9
20170622143747 92 194 5.0 10.0 0.00 0.00 0.00 44 1015.9
20170622142847 92 215 5.0 11.0 0.00 0.00 0.00 44 1015.9
20170622141947 91 189 5.0 10.0 0.00 0.00 0.00 44 1016.0
20170622141047 91 195 5.0 10.0 0.00 0.00 0.00 44 1016.1
20170622140147 91 203 4.0 10.0 0.00 0.00 0.00 42 1016.2
20170622135247 92 209 3.0 7.0 0.00 0.00 0.00 37 1016.3
20170622134347 92 206 4.0 7.0 0.00 0.00 0.00 36 1016.4
20170622133447 90 178 5.0 12.0 0.00 0.00 0.00 36 1016.4
20170622132547 89 183 5.0 11.0 0.00 0.00 0.00 38 1016.5
20170622131647 89 203 5.0 11.0 0.00 0.00 0.00 38 1016.5
20170622130747 89 203 6.0 15.0 0.00 0.00 0.00 38 1016.7
20170622125847 88 193 6.0 14.0 0.00 0.00 0.00 44 1016.7
20170622124947 87 190 6.0 12.0 0.00 0.00 0.00 48 1016.7
20170622124047 87 207 5.0 12.0 0.00 0.00 0.00 48 1016.8
20170622123147 87 205 6.0 11.0 0.00 0.00 0.00 48 1016.9
20170622122247 86 209 4.0 11.0 0.00 0.00 0.00 48 1016.9
20170622121347 87 187 4.0 11.0 0.00 0.00 0.00 48 1016.9
20170622120447 86 205 4.0 11.0 0.00 0.00 0.00 48 1017.0
20170622115547 85 215 4.0 11.0 0.00 0.00 0.00 48 1017.1
20170622114647 85 188 5.0 9.0 0.00 0.00 0.00 49 1017.1
20170622113747 85 172 6.0 12.0 0.00 0.00 0.00 49 1017.2
20170622112847 84 174 6.0 12.0 0.00 0.00 0.00 49 1017.1
20170622111947 84 171 4.0 11.0 0.00 0.00 0.00 50 1017.2
20170622111047 85 190 4.0 10.0 0.00 0.00 0.00 51 1017.3
20170622110147 84 216 4.0 9.0 0.00 0.00 0.00 51 1017.3
20170622105247 84 214 3.0 11.0 0.00 0.00 0.00 53 1017.3
20170622104347 84 244 2.0 7.0 0.00 0.00 0.00 53 1017.4
20170622103447 84 258 2.0 6.0 0.00 0.00 0.00 53 1017.4
20170622102547 83 245 3.0 8.0 0.00 0.00 0.00 55 1017.5
20170622101647 82 221 3.0 9.0 0.00 0.00 0.00 56 1017.5
20170622100747 82 289 3.0 7.0 0.00 0.00 0.00 58 1017.5
20170622095847 81 172 3.0 6.0 0.00 0.00 0.00 59 1017.5
20170622094947 81 164 3.0 8.0 0.00 0.00 0.00 60 1017.5
20170622094047 81 177 3.0 7.0 0.00 0.00 0.00 60 1017.5
20170622093147 80 156 2.0 7.0 0.00 0.00 0.00 62 1017.4
20170622092247 80 209 2.0 5.0 0.00 0.00 0.00 63 1017.5
20170622091347 79 222 3.0 6.0 0.00 0.00 0.00 64 1017.4
20170622090447 78 255 2.0 7.0 0.00 0.00 0.00 66 1017.4
20170622085547 78 202 1.0 6.0 0.00 0.00 0.00 68 1017.3
20170622084647 78 241 1.0 4.0 0.00 0.00 0.00 67 1017.2
20170622083747 78 211 2.0 5.0 0.00 0.00 0.00 69 1017.2
20170622082847 77 195 1.0 5.0 0.00 0.00 0.00 71 1017.3
20170622081947 77 188 2.0 5.0 0.00 0.00 0.00 72 1017.2
20170622081047 76 244 2.0 4.0 0.00 0.00 0.00 75 1017.3
20170622080147 75 193 2.0 4.0 0.00 0.00 0.00 76 1017.3
20170622075247 74 225 2.0 7.0 0.00 0.00 0.00 77 1017.2
20170622074347 74 233 2.0 4.0 0.00 0.00 0.00 78 1017.2
20170622073447 73 230 2.0 5.0 0.00 0.00 0.00 80 1017.2
20170622072547 73 268 2.0 4.0 0.00 0.00 0.00 80 1017.2
20170622071647 73 207 2.0 6.0 0.00 0.00 0.00 80 1017.2
20170622070747 73 196 2.0 5.0 0.00 0.00 0.00 82 1017.1
20170622065847 72 197 2.0 5.0 0.00 0.00 0.00 82 1017.2
20170622064946 72 233 2.0 6.0 0.00 0.00 0.00 83 1017.1